Time,TemperatureF,DewpointF,PressureIn,WindDirection,WindDirectionDegrees,WindSpeedMPH,WindSpeedGustMPH,Humidity,HourlyPrecipIn,Conditions,Clouds,dailyrainin,SoftwareType,DateUTC
2013-03-03 00:02:00,42.6,31.7,30.16,North,0,0.0,0.0,65,0.00,CLR,FEW,0.00,WeatherDisplay:10.37,2013-03-03 06:02:00,
2013-03-03 00:07:00,42.4,31.5,30.16,North,0,0.0,0.0,65,0.00,CLR,FEW,0.00,WeatherDisplay:10.37,2013-03-03 06:07:00,
2013-03-03 00:12:00,42.4,31.5,30.16,North,0,0.0,0.0,65,0.00,CLR,FEW,0.00,WeatherDisplay:10.37,2013-03-03 06:12:00,
2013-03-03 00:17:00,42.3,31.7,30.16,North,0,0.0,0.0,66,0.00,CLR,FEW,0.00,WeatherDisplay:10.37,2013-03-03 06:17:00,
2013-03-03 00:22:00,42.3,31.7,30.16,North,0,0.0,0.0,66,0.00,CLR,FEW,0.00,WeatherDisplay:10.37,2013-03-03 06:22:00,
2013-03-03 00:27:00,42.1,31.5,30.16,North,0,0.0,0.0,66,0.00,CLR,FEW,0.00,WeatherDisplay:10.37,2013-03-03 06:27:00,
2013-03-03 00:32:00,42.1,31.5,30.16,North,0,1.6,0.0,66,0.00,CLR,FEW,0.00,WeatherDisplay:10.37,2013-03-03 06:32:00,
2013-03-03 00:37:00,41.9,31.7,30.16,North,0,0.0,0.0,67,0.00,CLR,FEW,0.00,WeatherDisplay:10.37,2013-03-03 06:37:00,
2013-03-03 00:42:00,41.9,31.7,30.16,North,0,0.0,0.0,67,0.00,CLR,FEW,0.00,WeatherDisplay:10.37,2013-03-03 06:42:00,
2013-03-03 00:47:00,41.7,31.6,30.16,North,0,0.0,0.0,67,0.00,CLR,FEW,0.00,WeatherDisplay:10.37,2013-03-03 06:47:00,
2013-03-03 00:52:00,41.7,31.6,30.16,North,0,0.0,0.0,67,0.00,CLR,FEW,0.00,WeatherDisplay:10.37,2013-03-03 06:52:00,
2013-03-03 00:57:00,41.7,31.9,30.16,North,0,0.0,0.0,68,0.00,CLR,FEW,0.00,WeatherDisplay:10.37,2013-03-03 06:57:00,
2013-03-03 01:02:00,41.7,31.9,30.16,North,0,0.0,0.0,68,0.00,CLR,FEW,0.00,WeatherDisplay:10.37,2013-03-03 07:02:00,
2013-03-03 01:07:00,41.9,32.1,30.16,North,0,1.2,0.0,68,0.00,CLR,FEW,0.00,WeatherDisplay:10.37,2013-03-03 07:07:00,
2013-03-03 01:12:00,41.9,32.1,30.16,North,0,1.2,0.0,68,0.00,CLR,FEW,0.00,WeatherDisplay:10.37,2013-03-03 07:12:00,
2013-03-03 01:17:00,42.1,32.3,30.16,North,0,0.0,0.0,68,0.00,CLR,FEW,0.00,WeatherDisplay:10.37,2013-03-03 07:17:00,
2013-03-03 01:22:00,42.3,32.4,30.16,North,0,0.0,0.0,68,0.00,CLR,FEW,0.00,WeatherDisplay:10.37,2013-03-03 07:22:00,
2013-03-03 01:27:00,42.3,32.4,30.16,North,0,0.0,0.0,68,0.00,CLR,FEW,0.00,WeatherDisplay:10.37,2013-03-03 07:27:00,
2013-03-03 01:32:00,42.4,32.6,30.16,North,0,0.0,0.0,68,0.00,CLR,FEW,0.00,WeatherDisplay:10.37,2013-03-03 07:32:00,
2013-03-03 01:37:00,42.4,32.6,30.16,North,0,1.2,0.0,68,0.00,CLR,FEW,0.00,WeatherDisplay:10.37,2013-03-03 07:37:00,
2013-03-03 01:42:00,42.6,32.8,30.16,North,0,0.0,0.0,68,0.00,CLR,FEW,0.00,WeatherDisplay:10.37,2013-03-03 07:42:00,
2013-03-03 01:47:00,42.8,33.0,30.16,North,0,1.2,0.0,68,0.00,CLR,FEW,0.00,WeatherDisplay:10.37,2013-03-03 07:47:00,
2013-03-03 01:52:00,42.6,32.4,30.16,North,0,0.0,0.0,67,0.00,CLR,FEW,0.00,WeatherDisplay:10.37,2013-03-03 07:52:00,
2013-03-03 01:57:00,42.6,32.4,30.16,North,0,0.0,0.0,67,0.00,CLR,FEW,0.00,WeatherDisplay:10.37,2013-03-03 07:57:00,
2013-03-03 02:02:00,42.4,32.3,30.15,North,0,0.0,0.0,67,0.00,CLR,FEW,0.00,WeatherDisplay:10.37,2013-03-03 08:02:00,
2013-03-03 02:07:00,42.3,32.1,30.15,North,0,1.2,0.0,67,0.00,CLR,FEW,0.00,WeatherDisplay:10.37,2013-03-03 08:07:00,
2013-03-03 02:12:00,42.3,32.4,30.15,North,0,0.7,0.0,68,0.00,CLR,FEW,0.00,WeatherDisplay:10.37,2013-03-03 08:12:00,
2013-03-03 02:17:00,42.3,32.4,30.14,North,0,0.0,0.0,68,0.00,CLR,FEW,0.00,WeatherDisplay:10.37,2013-03-03 08:17:00,
2013-03-03 02:22:00,42.3,32.1,30.14,North,0,0.0,0.0,67,0.00,CLR,FEW,0.00,WeatherDisplay:10.37,2013-03-03 08:22:00,
2013-03-03 02:27:00,42.3,32.1,30.14,North,0,0.0,0.0,67,0.00,CLR,FEW,0.00,WeatherDisplay:10.37,2013-03-03 08:27:00,
2013-03-03 02:32:00,42.3,32.1,30.14,North,0,0.0,0.0,67,0.00,CLR,FEW,0.00,WeatherDisplay:10.37,2013-03-03 08:32:00,
2013-03-03 02:37:00,42.3,32.1,30.14,North,0,1.2,0.0,67,0.00,CLR,FEW,0.00,WeatherDisplay:10.37,2013-03-03 08:37:00,
2013-03-03 02:42:00,42.3,31.7,30.13,North,0,0.0,0.0,66,0.00,CLR,FEW,0.00,WeatherDisplay:10.37,2013-03-03 08:42:00,
2013-03-03 02:47:00,42.3,31.7,30.14,North,0,1.2,0.0,66,0.00,CLR,FEW,0.00,WeatherDisplay:10.37,2013-03-03 08:47:00,
2013-03-03 02:52:00,42.3,32.1,30.13,North,0,0.0,0.0,67,0.00,CLR,FEW,0.00,WeatherDisplay:10.37,2013-03-03 08:52:00,
2013-03-03 02:57:00,42.3,31.7,30.13,North,0,1.2,0.0,66,0.00,CLR,FEW,0.00,WeatherDisplay:10.37,2013-03-03 08:57:00,
2013-03-03 03:02:00,42.1,31.9,30.13,North,0,1.2,0.0,67,0.00,CLR,FEW,0.00,WeatherDisplay:10.37,2013-03-03 09:02:00,
2013-03-03 03:07:00,42.1,31.5,30.13,North,0,1.2,0.0,66,0.00,CLR,FEW,0.00,WeatherDisplay:10.37,2013-03-03 09:07:00,
2013-03-03 03:12:00,41.9,31.4,30.13,North,0,0.0,0.0,66,0.00,CLR,FEW,0.00,WeatherDisplay:10.37,2013-03-03 09:12:00,
2013-03-03 03:17:00,41.7,31.6,30.13,North,0,0.0,0.0,67,0.00,CLR,FEW,0.00,WeatherDisplay:10.37,2013-03-03 09:17:00,
2013-03-03 03:22:00,41.7,31.6,30.13,North,0,1.2,0.0,67,0.00,CLR,FEW,0.00,WeatherDisplay:10.37,2013-03-03 09:22:00,
2013-03-03 03:27:00,41.5,31.4,30.13,North,0,0.0,0.0,67,0.00,CLR,FEW,0.00,WeatherDisplay:10.37,2013-03-03 09:27:00,
2013-03-03 03:32:00,41.5,31.4,30.13,North,0,0.0,0.0,67,0.00,CLR,FEW,0.00,WeatherDisplay:10.37,2013-03-03 09:32:00,
2013-03-03 03:37:00,41.5,31.0,30.13,North,0,0.0,0.0,66,0.00,CLR,FEW,0.00,WeatherDisplay:10.37,2013-03-03 09:37:00,
2013-03-03 03:42:00,41.4,31.2,30.12,North,0,1.2,0.0,67,0.00,CLR,FEW,0.00,WeatherDisplay:10.37,2013-03-03 09:42:00,
2013-03-03 03:47:00,41.4,31.2,30.13,North,0,1.2,0.0,67,0.00,CLR,FEW,0.00,WeatherDisplay:10.37,2013-03-03 09:47:00,
2013-03-03 03:52:00,41.4,30.8,30.12,North,0,0.0,0.0,66,0.00,CLR,FEW,0.00,WeatherDisplay:10.37,2013-03-03 09:52:00,
2013-03-03 03:57:00,41.4,30.8,30.12,North,0,1.2,0.0,66,0.00,CLR,FEW,0.00,WeatherDisplay:10.37,2013-03-03 09:57:00,
2013-03-03 04:02:00,41.4,30.8,30.12,North,0,1.2,0.0,66,0.00,CLR,FEW,0.00,WeatherDisplay:10.37,2013-03-03 10:02:00,
2013-03-03 04:07:00,41.4,31.2,30.12,North,0,0.0,0.0,67,0.00,CLR,FEW,0.00,WeatherDisplay:10.37,2013-03-03 10:07:00,
2013-03-03 04:12:00,41.4,31.2,30.12,North,0,0.0,0.0,67,0.00,CLR,FEW,0.00,WeatherDisplay:10.37,2013-03-03 10:12:00,
2013-03-03 04:17:00,41.2,30.7,30.12,North,0,0.0,0.0,66,0.00,CLR,FEW,0.00,WeatherDisplay:10.37,2013-03-03 10:17:00,
2013-03-03 04:22:00,41.0,30.5,30.12,North,0,0.0,0.0,66,0.00,CLR,FEW,0.00,WeatherDisplay:10.37,2013-03-03 10:22:00,
2013-03-03 04:27:00,40.8,30.3,30.12,North,0,0.0,0.0,66,0.00,CLR,FEW,0.00,WeatherDisplay:10.37,2013-03-03 10:27:00,
2013-03-03 04:32:00,40.8,30.7,30.11,North,0,0.0,0.0,67,0.00,CLR,FEW,0.00,WeatherDisplay:10.37,2013-03-03 10:32:00,
2013-03-03 04:37:00,40.6,30.5,30.11,North,0,1.6,1.6,67,0.00,CLR,FEW,0.00,WeatherDisplay:10.37,2013-03-03 10:37:00,
2013-03-03 04:42:00,40.6,30.2,30.11,North,0,1.2,0.0,66,0.00,CLR,FEW,0.00,WeatherDisplay:10.37,2013-03-03 10:42:00,
2013-03-03 04:47:00,40.8,30.3,30.11,NE,45,2.3,2.3,66,0.00,CLR,FEW,0.00,WeatherDisplay:10.37,2013-03-03 10:47:00,
2013-03-03 04:52:00,40.8,30.3,30.11,NE,45,2.3,2.3,66,0.00,CLR,FEW,0.00,WeatherDisplay:10.37,2013-03-03 10:52:00,
2013-03-03 04:57:00,40.8,30.0,30.11,NE,45,2.3,2.3,65,0.00,CLR,FEW,0.00,WeatherDisplay:10.37,2013-03-03 10:57:00,
2013-03-03 05:02:00,40.8,30.0,30.11,NE,45,2.3,2.3,65,0.00,CLR,FEW,0.00,WeatherDisplay:10.37,2013-03-03 11:02:00,
2013-03-03 05:07:00,41.0,30.1,30.11,ENE,68,2.3,2.3,65,0.00,CLR,FEW,0.00,WeatherDisplay:10.37,2013-03-03 11:07:00,
2013-03-03 05:12:00,41.0,30.1,30.11,ENE,68,1.2,1.6,65,0.00,CLR,FEW,0.00,WeatherDisplay:10.37,2013-03-03 11:12:00,
2013-03-03 05:17:00,41.0,29.7,30.11,ENE,68,1.6,1.6,64,0.00,CLR,FEW,0.00,WeatherDisplay:10.37,2013-03-03 11:17:00,
2013-03-03 05:22:00,41.0,29.7,30.12,ENE,68,1.2,0.0,64,0.00,CLR,FEW,0.00,WeatherDisplay:10.37,2013-03-03 11:22:00,
2013-03-03 05:27:00,41.0,29.7,30.12,ENE,68,1.2,0.0,64,0.00,CLR,FEW,0.00,WeatherDisplay:10.37,2013-03-03 11:27:00,
2013-03-03 05:32:00,41.0,30.1,30.12,ENE,68,0.0,0.0,65,0.00,CLR,FEW,0.00,WeatherDisplay:10.37,2013-03-03 11:32:00,
2013-03-03 05:37:00,41.0,29.7,30.11,ENE,68,1.6,0.0,64,0.00,CLR,FEW,0.00,WeatherDisplay:10.37,2013-03-03 11:37:00,
2013-03-03 05:42:00,41.0,30.1,30.11,ENE,68,0.0,0.0,65,0.00,CLR,FEW,0.00,WeatherDisplay:10.37,2013-03-03 11:42:00,
2013-03-03 05:47:00,40.8,30.0,30.11,ENE,68,0.0,0.0,65,0.00,CLR,FEW,0.00,WeatherDisplay:10.37,2013-03-03 11:47:00,
2013-03-03 05:52:00,40.6,30.2,30.11,ENE,68,0.0,0.0,66,0.00,CLR,FEW,0.00,WeatherDisplay:10.37,2013-03-03 11:52:00,
2013-03-03 05:57:00,40.6,30.2,30.12,ENE,68,1.2,0.0,66,0.00,CLR,FEW,0.00,WeatherDisplay:10.37,2013-03-03 11:57:00,
2013-03-03 06:02:00,40.5,30.7,30.12,ENE,68,1.6,0.0,68,0.00,CLR,FEW,0.00,WeatherDisplay:10.37,2013-03-03 12:02:00,
2013-03-03 06:08:00,40.6,32.3,30.12,ENE,68,1.2,0.0,72,0.00,CLR,FEW,0.00,WeatherDisplay:10.37,2013-03-03 12:08:00,
2013-03-03 06:13:00,40.6,31.3,30.11,ENE,68,1.2,0.0,69,0.00,CLR,FEW,0.00,WeatherDisplay:10.37,2013-03-03 12:13:00,
2013-03-03 06:18:00,40.5,30.4,30.11,ENE,68,1.2,0.0,67,0.00,CLR,FEW,0.00,WeatherDisplay:10.37,2013-03-03 12:18:00,
2013-03-03 06:23:00,40.1,29.6,30.11,ENE,68,0.0,0.0,66,0.00,CLR,FEW,0.00,WeatherDisplay:10.37,2013-03-03 12:23:00,
2013-03-03 06:28:00,40.1,29.6,30.11,ENE,68,0.0,0.0,66,0.00,CLR,FEW,0.00,WeatherDisplay:10.37,2013-03-03 12:28:00,
2013-03-03 06:33:00,39.9,29.5,30.12,ENE,68,1.6,1.6,66,0.00,CLR,FEW,0.00,WeatherDisplay:10.37,2013-03-03 12:33:00,
2013-03-03 06:38:00,39.9,29.8,30.11,ENE,68,0.0,0.0,67,0.00,CLR,FEW,0.00,WeatherDisplay:10.37,2013-03-03 12:38:00,
2013-03-03 06:43:00,39.9,29.8,30.11,ENE,68,1.2,0.0,67,0.00,CLR,FEW,0.00,WeatherDisplay:10.37,2013-03-03 12:43:00,
2013-03-03 06:48:00,39.9,29.8,30.11,ENE,68,0.0,0.0,67,0.00,CLR,FEW,0.00,WeatherDisplay:10.37,2013-03-03 12:48:00,
2013-03-03 06:53:00,39.7,29.7,30.12,ENE,68,0.0,0.0,67,0.00,CLR,FEW,0.00,WeatherDisplay:10.37,2013-03-03 12:53:00,
2013-03-03 06:58:00,39.7,29.7,30.11,ENE,68,0.0,0.0,67,0.00,CLR,FEW,0.00,WeatherDisplay:10.37,2013-03-03 12:58:00,
2013-03-03 07:03:00,39.6,29.9,30.12,ENE,68,0.0,0.0,68,0.00,CLR,FEW,0.00,WeatherDisplay:10.37,2013-03-03 13:03:00,
2013-03-03 07:08:00,39.6,29.5,30.12,ENE,68,0.0,0.0,67,0.00,CLR,FEW,0.00,WeatherDisplay:10.37,2013-03-03 13:08:00,
2013-03-03 07:13:00,39.6,29.5,30.12,ENE,68,0.0,0.0,67,0.00,CLR,FEW,0.00,WeatherDisplay:10.37,2013-03-03 13:13:00,
2013-03-03 07:18:00,39.6,29.9,30.12,ENE,68,1.6,0.0,68,0.00,CLR,FEW,0.00,WeatherDisplay:10.37,2013-03-03 13:18:00,
2013-03-03 07:23:00,39.6,29.9,30.12,ENE,68,1.2,0.0,68,0.00,CLR,FEW,0.00,WeatherDisplay:10.37,2013-03-03 13:23:00,
2013-03-03 07:28:00,39.9,30.2,30.12,ENE,68,1.2,0.0,68,0.00,CLR,FEW,0.00,WeatherDisplay:10.37,2013-03-03 13:28:00,
2013-03-03 07:33:00,40.1,30.4,30.12,ENE,68,0.0,0.0,68,0.00,CLR,FEW,0.00,WeatherDisplay:10.37,2013-03-03 13:33:00,
2013-03-03 07:38:00,40.6,31.3,30.12,ENE,68,1.2,0.0,69,0.00,CLR,FEW,0.00,WeatherDisplay:10.37,2013-03-03 13:38:00,
2013-03-03 07:43:00,41.0,31.6,30.12,ENE,68,0.0,0.0,69,0.00,CLR,FEW,0.00,WeatherDisplay:10.37,2013-03-03 13:43:00,
2013-03-03 07:48:00,41.5,31.8,30.12,ENE,68,0.0,0.0,68,0.00,CLR,FEW,0.00,WeatherDisplay:10.37,2013-03-03 13:48:00,
2013-03-03 07:53:00,41.9,32.5,30.12,ENE,68,1.2,0.0,69,0.00,CLR,FEW,0.00,WeatherDisplay:10.37,2013-03-03 13:53:00,
2013-03-03 07:58:00,42.4,31.9,30.12,ENE,68,0.0,0.0,66,0.00,CLR,FEW,0.00,WeatherDisplay:10.37,2013-03-03 13:58:00,
2013-03-03 08:03:00,43.0,32.0,30.11,ENE,68,1.2,0.0,65,0.00,CLR,FEW,0.00,WeatherDisplay:10.37,2013-03-03 14:03:00,
2013-03-03 08:08:00,43.7,32.3,30.11,ENE,68,1.2,0.0,64,0.00,CLR,FEW,0.00,WeatherDisplay:10.37,2013-03-03 14:08:00,
2013-03-03 08:13:00,44.6,32.8,30.12,ENE,68,0.0,0.0,63,0.00,CLR,FEW,0.00,WeatherDisplay:10.37,2013-03-03 14:13:00,
2013-03-03 08:18:00,45.1,32.9,30.12,ENE,68,1.2,0.0,62,0.00,CLR,FEW,0.00,WeatherDisplay:10.37,2013-03-03 14:18:00,
2013-03-03 08:23:00,45.9,33.2,30.12,ENE,68,1.2,0.0,61,0.00,CLR,FEW,0.00,WeatherDisplay:10.37,2013-03-03 14:23:00,
2013-03-03 08:28:00,46.6,33.4,30.11,ENE,68,1.2,0.0,60,0.00,CLR,FEW,0.00,WeatherDisplay:10.37,2013-03-03 14:28:00,
2013-03-03 08:33:00,47.5,33.4,30.11,ENE,68,2.3,2.3,58,0.00,CLR,FEW,0.00,WeatherDisplay:10.37,2013-03-03 14:33:00,
2013-03-03 08:38:00,48.4,33.8,30.12,ENE,68,2.3,0.0,57,0.00,CLR,FEW,0.00,WeatherDisplay:10.37,2013-03-03 14:38:00,
2013-03-03 08:43:00,49.1,34.5,30.12,ENE,68,1.2,0.0,57,0.00,CLR,FEW,0.00,WeatherDisplay:10.37,2013-03-03 14:43:00,
2013-03-03 08:48:00,49.6,34.1,30.12,ENE,68,1.2,0.0,55,0.00,CLR,FEW,0.00,WeatherDisplay:10.37,2013-03-03 14:48:00,
2013-03-03 08:53:00,50.2,34.2,30.12,ENE,68,1.6,0.0,54,0.00,CLR,FEW,0.00,WeatherDisplay:10.37,2013-03-03 14:53:00,
2013-03-03 08:58:00,50.5,34.0,30.12,ENE,68,2.3,0.0,53,0.00,CLR,FEW,0.00,WeatherDisplay:10.37,2013-03-03 14:58:00,
2013-03-03 09:03:00,51.1,33.6,30.12,ENE,68,2.3,2.3,51,0.00,CLR,FEW,0.00,WeatherDisplay:10.37,2013-03-03 15:03:00,
2013-03-03 09:08:00,51.6,34.6,30.12,ENE,68,1.2,0.0,52,0.00,CLR,FEW,0.00,WeatherDisplay:10.37,2013-03-03 15:08:00,
2013-03-03 09:13:00,52.3,34.7,30.12,ENE,68,1.6,0.0,51,0.00,CLR,FEW,0.00,WeatherDisplay:10.37,2013-03-03 15:13:00,
2013-03-03 09:18:00,52.9,34.2,30.11,ENE,68,1.2,0.0,49,0.00,CLR,FEW,0.00,WeatherDisplay:10.37,2013-03-03 15:18:00,
2013-03-03 09:23:00,53.6,33.8,30.12,North,0,1.2,0.0,47,0.00,CLR,FEW,0.00,WeatherDisplay:10.37,2013-03-03 15:23:00,
2013-03-03 09:28:00,54.3,35.0,30.11,North,0,1.2,0.0,48,0.00,CLR,FEW,0.00,WeatherDisplay:10.37,2013-03-03 15:28:00,
2013-03-03 09:33:00,55.2,35.3,30.11,North,0,1.2,0.0,47,0.00,CLR,FEW,0.00,WeatherDisplay:10.37,2013-03-03 15:33:00,
2013-03-03 09:38:00,55.8,34.7,30.11,SE,135,2.3,2.3,45,0.00,CLR,FEW,0.00,WeatherDisplay:10.37,2013-03-03 15:38:00,
2013-03-03 09:43:00,56.8,35.1,30.11,SE,135,2.3,2.3,44,0.00,CLR,FEW,0.00,WeatherDisplay:10.37,2013-03-03 15:43:00,
2013-03-03 09:48:00,57.7,35.4,30.11,NE,45,1.2,0.0,43,0.00,CLR,FEW,0.00,WeatherDisplay:10.37,2013-03-03 15:48:00,
2013-03-03 09:53:00,59.0,36.5,30.10,NE,45,1.6,1.6,43,0.00,CLR,FEW,0.00,WeatherDisplay:10.37,2013-03-03 15:53:00,
2013-03-03 09:58:00,59.9,36.7,30.10,NE,45,1.2,1.2,42,0.00,CLR,FEW,0.00,WeatherDisplay:10.37,2013-03-03 15:58:00,
2013-03-03 10:03:00,61.2,34.0,30.09,NE,45,2.2,2.2,36,0.00,CLR,FEW,0.00,WeatherDisplay:10.37,2013-03-03 16:03:00,
2013-03-03 10:08:00,61.9,36.0,30.09,WSW,248,3.5,3.5,38,0.00,CLR,FEW,0.00,WeatherDisplay:10.37,2013-03-03 16:08:00,
2013-03-03 10:14:00,62.6,35.3,30.09,ENE,68,2.2,2.2,36,0.00,CLR,FEW,0.00,WeatherDisplay:10.37,2013-03-03 16:14:00,
2013-03-03 10:19:00,63.0,35.6,30.08,ENE,68,2.3,0.0,36,0.00,CLR,FEW,0.00,WeatherDisplay:10.37,2013-03-03 16:19:00,
2013-03-03 10:24:00,63.3,35.9,30.08,East,90,5.8,5.8,36,0.00,CLR,FEW,0.00,WeatherDisplay:10.37,2013-03-03 16:24:00,
2013-03-03 10:29:00,64.2,35.2,30.08,SW,225,3.5,3.5,34,0.00,CLR,FEW,0.00,WeatherDisplay:10.37,2013-03-03 16:29:00,
2013-03-03 10:34:00,65.1,36.8,30.08,SW,225,3.5,3.5,35,0.00,CLR,FEW,0.00,WeatherDisplay:10.37,2013-03-03 16:34:00,
2013-03-03 10:39:00,65.7,34.2,30.07,SSW,202,5.8,0.0,31,0.00,CLR,FEW,0.00,WeatherDisplay:10.37,2013-03-03 16:39:00,
2013-03-03 10:44:00,66.2,33.8,30.07,SW,225,6.9,6.9,30,0.00,CLR,FEW,0.00,WeatherDisplay:10.37,2013-03-03 16:44:00,
2013-03-03 10:49:00,66.7,35.1,30.06,NE,45,3.5,3.5,31,0.00,CLR,FEW,0.00,WeatherDisplay:10.37,2013-03-03 16:49:00,
2013-03-03 10:54:00,66.9,33.6,30.06,SW,225,8.1,8.1,29,0.00,CLR,FEW,0.00,WeatherDisplay:10.37,2013-03-03 16:54:00,
2013-03-03 10:59:00,66.7,32.6,30.06,SW,225,8.3,8.3,28,0.00,CLR,FEW,0.00,WeatherDisplay:10.37,2013-03-03 16:59:00,
2013-03-03 11:04:00,67.3,34.8,30.06,South,180,3.5,3.5,30,0.00,CLR,FEW,0.00,WeatherDisplay:10.37,2013-03-03 17:04:00,
2013-03-03 11:09:00,68.5,34.1,30.06,NW,315,3.8,3.8,28,0.00,CLR,FEW,0.00,WeatherDisplay:10.37,2013-03-03 17:09:00,
2013-03-03 11:14:00,69.1,34.6,30.05,East,90,5.8,5.8,28,0.00,CLR,FEW,0.00,WeatherDisplay:10.37,2013-03-03 17:14:00,
2013-03-03 11:19:00,69.6,33.2,30.05,West,270,3.1,3.1,26,0.00,CLR,FEW,0.00,WeatherDisplay:10.37,2013-03-03 17:19:00,
2013-03-03 11:24:00,69.6,32.2,30.04,West,270,5.8,5.8,25,0.00,CLR,FEW,0.00,WeatherDisplay:10.37,2013-03-03 17:24:00,
2013-03-03 11:29:00,70.2,32.7,30.04,SE,135,4.6,4.6,25,0.00,CLR,FEW,0.00,WeatherDisplay:10.37,2013-03-03 17:29:00,
2013-03-03 11:34:00,70.5,34.0,30.04,NW,315,5.8,5.8,26,0.00,CLR,FEW,0.00,WeatherDisplay:10.37,2013-03-03 17:34:00,
2013-03-03 11:39:00,70.7,32.1,30.04,West,270,4.6,4.6,24,0.00,CLR,FEW,0.00,WeatherDisplay:10.37,2013-03-03 17:39:00,
2013-03-03 11:44:00,71.1,32.4,30.03,SW,225,8.1,8.1,24,0.00,CLR,FEW,0.00,WeatherDisplay:10.37,2013-03-03 17:44:00,
2013-03-03 11:49:00,70.9,34.3,30.03,North,0,3.8,3.8,26,0.00,CLR,FEW,0.00,WeatherDisplay:10.37,2013-03-03 17:49:00,
2013-03-03 11:54:00,71.1,34.4,30.03,North,0,3.5,0.0,26,0.00,CLR,FEW,0.00,WeatherDisplay:10.37,2013-03-03 17:54:00,
2013-03-03 11:59:00,71.4,34.7,30.03,East,90,2.3,2.3,26,0.00,CLR,FEW,0.00,WeatherDisplay:10.37,2013-03-03 17:59:00,
2013-03-03 12:04:00,71.6,35.8,30.02,SW,225,5.8,5.8,27,0.00,CLR,FEW,0.00,WeatherDisplay:10.37,2013-03-03 18:04:00,
2013-03-03 12:09:00,71.8,32.0,30.02,West,270,8.1,8.1,23,0.00,CLR,FEW,0.00,WeatherDisplay:10.37,2013-03-03 18:09:00,
2013-03-03 12:14:00,71.8,34.0,30.01,South,180,5.8,5.8,25,0.00,CLR,FEW,0.00,WeatherDisplay:10.37,2013-03-03 18:14:00,
2013-03-03 12:19:00,72.0,31.0,30.00,SW,225,8.1,8.1,22,0.00,CLR,FEW,0.00,WeatherDisplay:10.37,2013-03-03 18:19:00,
2013-03-03 12:24:00,72.3,30.2,30.00,West,270,3.5,3.5,21,0.00,CLR,FEW,0.00,WeatherDisplay:10.37,2013-03-03 18:24:00,
2013-03-03 12:29:00,72.9,28.2,30.00,SW,225,3.8,3.8,19,0.00,CLR,FEW,0.00,WeatherDisplay:10.37,2013-03-03 18:29:00,
2013-03-03 12:34:00,73.2,33.2,30.00,NW,315,4.6,4.6,23,0.00,CLR,FEW,0.00,WeatherDisplay:10.37,2013-03-03 18:34:00,
2013-03-03 12:39:00,73.6,31.2,29.99,SW,225,3.8,3.8,21,0.00,CLR,FEW,0.00,WeatherDisplay:10.37,2013-03-03 18:39:00,
2013-03-03 12:44:00,73.8,31.4,29.99,SW,225,3.5,3.5,21,0.00,CLR,FEW,0.00,WeatherDisplay:10.37,2013-03-03 18:44:00,
2013-03-03 12:49:00,73.9,29.0,29.99,East,90,9.2,9.2,19,0.00,CLR,FEW,0.00,WeatherDisplay:10.37,2013-03-03 18:49:00,
2013-03-03 12:54:00,74.1,27.9,29.99,South,180,4.6,4.6,18,0.00,CLR,FEW,0.00,WeatherDisplay:10.37,2013-03-03 18:54:00,
2013-03-03 13:19:00,75.0,28.6,29.97,North,0,8.1,8.1,18,0.00,CLR,FEW,0.00,WeatherDisplay:10.37,2013-03-03 19:19:00,
2013-03-03 13:24:00,75.2,30.1,29.96,East,90,4.6,4.6,19,0.00,CLR,FEW,0.00,WeatherDisplay:10.37,2013-03-03 19:24:00,
2013-03-03 13:29:00,75.4,30.2,29.96,North,0,3.5,3.5,19,0.00,CLR,FEW,0.00,WeatherDisplay:10.37,2013-03-03 19:29:00,
2013-03-03 13:34:00,75.7,27.8,29.95,SW,225,5.8,5.8,17,0.00,CLR,FEW,0.00,WeatherDisplay:10.37,2013-03-03 19:34:00,
2013-03-03 13:39:00,75.7,26.3,29.95,SW,225,8.1,8.1,16,0.00,CLR,FEW,0.00,WeatherDisplay:10.37,2013-03-03 19:39:00,
2013-03-03 13:44:00,74.8,32.3,29.95,SW,225,10.4,10.4,21,0.00,CLR,FEW,0.00,WeatherDisplay:10.37,2013-03-03 19:44:00,
2013-03-03 13:49:00,74.8,24.1,29.95,SW,225,8.3,8.3,15,0.00,CLR,FEW,0.00,WeatherDisplay:10.37,2013-03-03 19:49:00,
2013-03-03 13:54:00,75.0,29.9,29.94,NE,45,5.8,5.8,19,0.00,CLR,FEW,0.00,WeatherDisplay:10.37,2013-03-03 19:54:00,
2013-03-03 13:59:00,75.6,27.7,29.94,SW,225,5.4,5.4,17,0.00,CLR,FEW,0.00,WeatherDisplay:10.37,2013-03-03 19:59:00,
2013-03-03 14:04:00,75.2,27.4,29.94,NW,315,15.0,15.0,17,0.00,CLR,FEW,0.00,WeatherDisplay:10.37,2013-03-03 20:04:00,
2013-03-03 14:09:00,75.4,28.9,29.93,SW,225,4.5,4.5,18,0.00,CLR,FEW,0.00,WeatherDisplay:10.37,2013-03-03 20:09:00,
2013-03-03 14:14:00,75.9,29.3,29.93,SW,225,5.8,5.8,18,0.00,CLR,FEW,0.00,WeatherDisplay:10.37,2013-03-03 20:14:00,
2013-03-03 14:19:00,76.1,26.6,29.93,SW,225,8.1,8.1,16,0.00,CLR,FEW,0.00,WeatherDisplay:10.37,2013-03-03 20:19:00,
2013-03-03 14:24:00,75.9,27.9,29.93,SW,225,10.4,10.4,17,0.00,CLR,FEW,0.00,WeatherDisplay:10.37,2013-03-03 20:24:00,
2013-03-03 14:49:00,76.3,29.6,29.91,NE,45,10.4,10.4,18,0.00,CLR,FEW,0.00,WeatherDisplay:10.37,2013-03-03 20:49:00,
2013-03-03 14:54:00,76.5,31.1,29.91,North,0,4.6,4.6,19,0.00,CLR,FEW,0.00,WeatherDisplay:10.37,2013-03-03 20:54:00,
2013-03-03 14:59:00,76.3,31.0,29.91,North,0,2.3,2.3,19,0.00,CLR,FEW,0.00,WeatherDisplay:10.37,2013-03-03 20:59:00,
2013-03-03 15:33:00,77.0,24.1,29.89,NW,315,8.3,8.3,14,0.00,CLR,FEW,0.00,WeatherDisplay:10.37,2013-03-03 21:33:00,
2013-03-03 15:38:00,77.0,25.8,29.88,South,180,5.8,5.8,15,0.00,CLR,FEW,0.00,WeatherDisplay:10.37,2013-03-03 21:38:00,
2013-03-03 15:43:00,77.0,28.8,29.88,East,90,3.5,3.5,17,0.00,CLR,FEW,0.00,WeatherDisplay:10.37,2013-03-03 21:43:00,
2013-03-03 15:48:00,77.0,25.8,29.88,North,0,4.6,4.6,15,0.00,CLR,FEW,0.00,WeatherDisplay:10.37,2013-03-03 21:48:00,
2013-03-03 15:53:00,77.0,25.8,29.88,SE,135,6.0,6.0,15,0.00,CLR,FEW,0.00,WeatherDisplay:10.37,2013-03-03 21:53:00,
2013-03-03 15:58:00,77.2,27.5,29.88,NE,45,4.6,4.6,16,0.00,CLR,FEW,0.00,WeatherDisplay:10.37,2013-03-03 21:58:00,
2013-03-03 16:03:00,77.4,26.1,29.88,East,90,11.5,11.5,15,0.00,CLR,FEW,0.00,WeatherDisplay:10.37,2013-03-03 22:03:00,
2013-03-03 16:08:00,77.4,27.6,29.88,SW,225,2.3,2.3,16,0.00,CLR,FEW,0.00,WeatherDisplay:10.37,2013-03-03 22:08:00,
2013-03-03 16:13:00,77.4,26.1,29.87,NW,315,8.1,8.1,15,0.00,CLR,FEW,0.00,WeatherDisplay:10.37,2013-03-03 22:13:00,
2013-03-03 16:18:00,77.4,24.4,29.87,SW,225,3.5,3.5,14,0.00,CLR,FEW,0.00,WeatherDisplay:10.37,2013-03-03 22:18:00,
2013-03-03 16:23:00,77.5,27.8,29.87,NW,315,4.5,4.5,16,0.00,CLR,FEW,0.00,WeatherDisplay:10.37,2013-03-03 22:23:00,
2013-03-03 16:28:00,77.5,30.7,29.86,NE,45,3.5,3.5,18,0.00,CLR,FEW,0.00,WeatherDisplay:10.37,2013-03-03 22:28:00,
2013-03-03 16:33:00,77.4,26.1,29.86,SE,135,4.6,4.6,15,0.00,CLR,FEW,0.00,WeatherDisplay:10.37,2013-03-03 22:33:00,
2013-03-03 16:38:00,77.4,27.6,29.86,SE,135,9.2,9.2,16,0.00,CLR,FEW,0.00,WeatherDisplay:10.37,2013-03-03 22:38:00,
2013-03-03 16:43:00,77.2,30.4,29.86,NW,315,3.5,3.5,18,0.00,CLR,FEW,0.00,WeatherDisplay:10.37,2013-03-03 22:43:00,
2013-03-03 16:48:00,77.0,30.2,29.85,SW,225,3.5,0.0,18,0.00,CLR,FEW,0.00,WeatherDisplay:10.37,2013-03-03 22:48:00,
2013-03-03 16:53:00,76.8,30.1,29.85,West,270,3.5,3.5,18,0.00,CLR,FEW,0.00,WeatherDisplay:10.37,2013-03-03 22:53:00,
2013-03-03 16:58:00,76.8,31.4,29.85,NW,315,2.3,2.3,19,0.00,CLR,FEW,0.00,WeatherDisplay:10.37,2013-03-03 22:58:00,
2013-03-03 17:03:00,76.5,31.1,29.85,NE,45,3.8,3.8,19,0.00,CLR,FEW,0.00,WeatherDisplay:10.37,2013-03-03 23:03:00,
2013-03-03 17:08:00,76.1,29.5,29.85,North,0,3.5,3.5,18,0.00,CLR,FEW,0.00,WeatherDisplay:10.37,2013-03-03 23:08:00,
2013-03-03 17:13:00,75.7,31.8,29.85,North,0,5.8,0.0,20,0.00,CLR,FEW,0.00,WeatherDisplay:10.37,2013-03-03 23:13:00,
2013-03-03 17:18:00,75.9,30.7,29.84,East,90,3.5,3.5,19,0.00,CLR,FEW,0.00,WeatherDisplay:10.37,2013-03-03 23:18:00,
2013-03-03 17:23:00,76.1,29.5,29.84,SW,225,4.6,4.6,18,0.00,CLR,FEW,0.00,WeatherDisplay:10.37,2013-03-03 23:23:00,
2013-03-03 17:28:00,76.1,29.5,29.85,North,0,3.5,3.5,18,0.00,CLR,FEW,0.00,WeatherDisplay:10.37,2013-03-03 23:28:00,
2013-03-03 17:33:00,75.6,29.0,29.84,NW,315,5.8,5.8,18,0.00,CLR,FEW,0.00,WeatherDisplay:10.37,2013-03-03 23:33:00,
2013-03-03 17:38:00,75.4,31.5,29.84,North,0,5.8,5.8,20,0.00,CLR,FEW,0.00,WeatherDisplay:10.37,2013-03-03 23:38:00,
2013-03-03 17:43:00,75.2,30.1,29.85,East,90,3.5,0.0,19,0.00,CLR,FEW,0.00,WeatherDisplay:10.37,2013-03-03 23:43:00,
2013-03-03 17:48:00,74.8,29.8,29.84,East,90,2.3,2.3,19,0.00,CLR,FEW,0.00,WeatherDisplay:10.37,2013-03-03 23:48:00,
2013-03-03 17:53:00,74.3,29.3,29.84,North,0,4.5,4.5,19,0.00,CLR,FEW,0.00,WeatherDisplay:10.37,2013-03-03 23:53:00,
2013-03-03 17:58:00,73.9,29.0,29.84,East,90,5.8,5.8,19,0.00,CLR,FEW,0.00,WeatherDisplay:10.37,2013-03-03 23:58:00,
2013-03-03 18:03:00,73.8,31.4,29.84,East,90,1.6,1.6,21,0.00,CLR,FEW,0.00,WeatherDisplay:10.37,2013-03-04 00:03:00,
2013-03-03 18:08:00,73.2,30.9,29.84,East,90,3.5,0.0,21,0.00,CLR,FEW,0.00,WeatherDisplay:10.37,2013-03-04 00:08:00,
2013-03-03 18:13:00,73.2,30.9,29.84,South,180,3.8,3.8,21,0.00,CLR,FEW,0.00,WeatherDisplay:10.37,2013-03-04 00:13:00,
2013-03-03 18:18:00,72.9,29.4,29.84,NW,315,1.2,1.2,20,0.00,CLR,FEW,0.00,WeatherDisplay:10.37,2013-03-04 00:18:00,
2013-03-03 18:23:00,72.3,31.3,29.85,NE,45,3.5,3.5,22,0.00,CLR,FEW,0.00,WeatherDisplay:10.37,2013-03-04 00:23:00,
2013-03-03 18:28:00,72.1,31.2,29.84,NE,45,1.2,0.0,22,0.00,CLR,FEW,0.00,WeatherDisplay:10.37,2013-03-04 00:28:00,
2013-03-03 18:33:00,71.8,30.9,29.84,East,90,2.3,0.0,22,0.00,CLR,FEW,0.00,WeatherDisplay:10.37,2013-03-04 00:33:00,
2013-03-03 18:38:00,71.2,30.4,29.84,East,90,1.2,0.0,22,0.00,CLR,FEW,0.00,WeatherDisplay:10.37,2013-03-04 00:38:00,
2013-03-03 18:43:00,70.7,31.1,29.84,East,90,0.0,0.0,23,0.00,CLR,FEW,0.00,WeatherDisplay:10.37,2013-03-04 00:43:00,
2013-03-03 18:48:00,70.2,31.7,29.84,East,90,0.0,0.0,24,0.00,CLR,FEW,0.00,WeatherDisplay:10.37,2013-03-04 00:48:00,
2013-03-03 19:24:00,67.5,32.3,29.83,East,90,1.6,0.0,27,0.00,CLR,FEW,0.00,WeatherDisplay:10.37,2013-03-04 01:24:00,
2013-03-03 19:29:00,67.1,32.0,29.83,East,90,1.2,0.0,27,0.00,CLR,FEW,0.00,WeatherDisplay:10.37,2013-03-04 01:29:00,
2013-03-03 19:35:00,66.7,31.7,29.84,East,90,0.0,0.0,27,0.00,CLR,FEW,0.00,WeatherDisplay:10.37,2013-03-04 01:35:00,
2013-03-03 19:40:00,66.4,31.4,29.84,East,90,0.0,0.0,27,0.00,CLR,FEW,0.00,WeatherDisplay:10.37,2013-03-04 01:40:00,
2013-03-03 19:45:00,66.2,31.2,29.84,East,90,1.2,0.0,27,0.00,CLR,FEW,0.00,WeatherDisplay:10.37,2013-03-04 01:45:00,
2013-03-03 19:50:00,65.8,31.8,29.84,East,90,1.6,1.6,28,0.00,CLR,FEW,0.00,WeatherDisplay:10.37,2013-03-04 01:50:00,
2013-03-03 19:55:00,65.7,32.5,29.84,East,90,1.2,0.0,29,0.00,CLR,FEW,0.00,WeatherDisplay:10.37,2013-03-04 01:55:00,
2013-03-03 20:00:00,65.5,32.4,29.84,East,90,1.2,0.0,29,0.00,CLR,FEW,0.00,WeatherDisplay:10.37,2013-03-04 02:00:00,
2013-03-03 20:05:00,65.3,33.0,29.84,East,90,1.2,0.0,30,0.00,CLR,FEW,0.00,WeatherDisplay:10.37,2013-03-04 02:05:00,
2013-03-03 20:10:00,64.9,32.7,29.84,SE,135,2.3,2.3,30,0.00,CLR,FEW,0.00,WeatherDisplay:10.37,2013-03-04 02:10:00,
2013-03-03 20:15:00,64.9,32.7,29.84,SE,135,1.6,0.0,30,0.00,CLR,FEW,0.00,WeatherDisplay:10.37,2013-03-04 02:15:00,
2013-03-03 20:20:00,64.8,33.4,29.83,SE,135,1.2,1.2,31,0.00,CLR,FEW,0.00,WeatherDisplay:10.37,2013-03-04 02:20:00,
2013-03-03 20:25:00,64.8,33.4,29.84,East,90,1.6,1.6,31,0.00,CLR,FEW,0.00,WeatherDisplay:10.37,2013-03-04 02:25:00,
2013-03-03 20:30:00,64.9,32.7,29.84,East,90,1.6,1.6,30,0.00,CLR,FEW,0.00,WeatherDisplay:10.37,2013-03-04 02:30:00,
2013-03-03 20:35:00,65.1,32.9,29.84,East,90,1.2,0.0,30,0.00,CLR,FEW,0.00,WeatherDisplay:10.37,2013-03-04 02:35:00,
2013-03-03 20:40:00,65.1,33.7,29.84,East,90,3.5,0.0,31,0.00,CLR,FEW,0.00,WeatherDisplay:10.37,2013-03-04 02:40:00,
2013-03-03 20:45:00,64.8,33.4,29.83,East,90,1.2,0.0,31,0.00,CLR,FEW,0.00,WeatherDisplay:10.37,2013-03-04 02:45:00,
2013-03-03 20:50:00,64.4,33.1,29.83,East,90,1.2,1.2,31,0.00,CLR,FEW,0.00,WeatherDisplay:10.37,2013-03-04 02:50:00,
2013-03-03 20:55:00,64.4,33.1,29.83,South,180,3.5,0.0,31,0.00,CLR,FEW,0.00,WeatherDisplay:10.37,2013-03-04 02:55:00,
2013-03-03 21:00:00,64.4,32.3,29.83,North,0,0.0,0.7,30,0.00,CLR,FEW,0.00,WeatherDisplay:10.37,2013-03-04 03:00:00,
2013-03-03 21:05:00,64.6,32.4,29.83,East,90,2.3,2.3,30,0.00,CLR,FEW,0.00,WeatherDisplay:10.37,2013-03-04 03:05:00,
2013-03-03 21:10:00,64.8,32.6,29.83,NE,45,2.3,0.0,30,0.00,CLR,FEW,0.00,WeatherDisplay:10.37,2013-03-04 03:10:00,
2013-03-03 21:15:00,64.9,31.9,29.84,NE,45,1.6,0.0,29,0.00,CLR,FEW,0.00,WeatherDisplay:10.37,2013-03-04 03:15:00,
2013-03-03 21:20:00,65.1,32.0,29.83,SE,135,3.5,3.5,29,0.00,CLR,FEW,0.00,WeatherDisplay:10.37,2013-03-04 03:20:00,
2013-03-03 21:25:00,65.5,32.4,29.83,ESE,112,4.6,0.0,29,0.00,CLR,FEW,0.00,WeatherDisplay:10.37,2013-03-04 03:25:00,
2013-03-03 21:30:00,65.8,33.5,29.84,SE,135,3.5,3.5,30,0.00,CLR,FEW,0.00,WeatherDisplay:10.37,2013-03-04 03:30:00,
2013-03-03 21:35:00,65.8,34.3,29.84,South,180,5.8,5.8,31,0.00,CLR,FEW,0.00,WeatherDisplay:10.37,2013-03-04 03:35:00,
2013-03-03 21:40:00,66.0,35.3,29.84,North,0,1.2,0.0,32,0.00,CLR,FEW,0.00,WeatherDisplay:10.37,2013-03-04 03:40:00,
2013-03-03 21:45:00,65.7,35.8,29.84,South,180,3.5,3.5,33,0.00,CLR,FEW,0.00,WeatherDisplay:10.37,2013-03-04 03:45:00,
2013-03-03 21:50:00,65.5,36.4,29.84,SE,135,2.3,2.3,34,0.00,CLR,FEW,0.00,WeatherDisplay:10.37,2013-03-04 03:50:00,
2013-03-03 21:55:00,65.3,37.6,29.84,SE,135,3.5,3.5,36,0.00,CLR,FEW,0.00,WeatherDisplay:10.37,2013-03-04 03:55:00,
2013-03-03 22:00:00,65.1,38.9,29.84,SE,135,2.3,0.0,38,0.00,CLR,FEW,0.00,WeatherDisplay:10.37,2013-03-04 04:00:00,
2013-03-03 22:05:00,64.9,39.4,29.84,East,90,1.6,1.6,39,0.00,CLR,FEW,0.00,WeatherDisplay:10.37,2013-03-04 04:05:00,
2013-03-03 22:10:00,64.6,39.7,29.84,East,90,1.2,0.0,40,0.00,CLR,FEW,0.00,WeatherDisplay:10.37,2013-03-04 04:10:00,
2013-03-03 22:15:00,64.2,40.6,29.84,SE,135,3.5,0.0,42,0.00,CLR,FEW,0.00,WeatherDisplay:10.37,2013-03-04 04:15:00,
2013-03-03 22:20:00,64.0,41.1,29.84,SE,135,2.3,2.3,43,0.00,CLR,FEW,0.00,WeatherDisplay:10.37,2013-03-04 04:20:00,
2013-03-03 22:25:00,63.9,41.5,29.84,NE,45,2.3,2.3,44,0.00,CLR,FEW,0.00,WeatherDisplay:10.37,2013-03-04 04:25:00,
2013-03-03 22:30:00,63.7,41.9,29.83,NE,45,1.2,0.0,45,0.00,CLR,FEW,0.00,WeatherDisplay:10.37,2013-03-04 04:30:00,
2013-03-03 22:35:00,63.5,42.3,29.83,East,90,2.2,2.2,46,0.00,CLR,FEW,0.00,WeatherDisplay:10.37,2013-03-04 04:35:00,
2013-03-03 22:40:00,63.1,42.6,29.83,East,90,2.3,2.3,47,0.00,CLR,FEW,0.00,WeatherDisplay:10.37,2013-03-04 04:40:00,
2013-03-03 22:45:00,63.0,42.4,29.83,East,90,2.3,0.0,47,0.00,CLR,FEW,0.00,WeatherDisplay:10.37,2013-03-04 04:45:00,
2013-03-03 22:50:00,62.8,42.8,29.83,ESE,112,2.3,2.3,48,0.00,CLR,FEW,0.00,WeatherDisplay:10.37,2013-03-04 04:50:00,
2013-03-03 22:55:00,62.6,42.6,29.83,East,90,2.3,2.3,48,0.00,CLR,FEW,0.00,WeatherDisplay:10.37,2013-03-04 04:55:00,
2013-03-03 23:00:00,62.6,43.2,29.83,NE,45,2.3,0.0,49,0.00,CLR,FEW,0.00,WeatherDisplay:10.37,2013-03-04 05:00:00,
2013-03-03 23:01:00,62.6,43.2,29.83,NE,45,2.3,0.0,49,0.00,CLR,FEW,0.00,WeatherDisplay:10.37,2013-03-04 05:01:00,
2013-03-03 23:06:00,62.4,43.0,29.83,East,90,2.3,2.3,49,0.00,CLR,FEW,0.00,WeatherDisplay:10.37,2013-03-04 05:06:00,
2013-03-03 23:11:00,62.4,43.0,29.83,East,90,2.3,2.3,49,0.00,CLR,FEW,0.00,WeatherDisplay:10.37,2013-03-04 05:11:00,
2013-03-03 23:16:00,62.2,42.8,29.83,East,90,2.3,2.3,49,0.00,CLR,FEW,0.00,WeatherDisplay:10.37,2013-03-04 05:16:00,
2013-03-03 23:21:00,62.1,43.2,29.82,SE,135,2.3,2.3,50,0.00,CLR,FEW,0.00,WeatherDisplay:10.37,2013-03-04 05:21:00,
2013-03-03 23:26:00,61.9,43.0,29.82,SE,135,2.3,0.0,50,0.00,CLR,FEW,0.00,WeatherDisplay:10.37,2013-03-04 05:26:00,
2013-03-03 23:31:00,61.9,43.0,29.82,SE,135,2.3,2.3,50,0.00,CLR,FEW,0.00,WeatherDisplay:10.37,2013-03-04 05:31:00,
2013-03-03 23:36:00,61.7,42.9,29.81,SE,135,3.5,3.5,50,0.00,CLR,FEW,0.00,WeatherDisplay:10.37,2013-03-04 05:36:00,
2013-03-03 23:42:00,61.5,42.7,29.81,SE,135,1.2,0.0,50,0.00,CLR,FEW,0.00,WeatherDisplay:10.37,2013-03-04 05:42:00,
2013-03-03 23:47:00,61.5,42.7,29.81,SE,135,3.1,3.1,50,0.00,CLR,FEW,0.00,WeatherDisplay:10.37,2013-03-04 05:47:00,
2013-03-03 23:52:00,61.5,42.7,29.81,SE,135,3.5,3.5,50,0.00,CLR,FEW,0.00,WeatherDisplay:10.37,2013-03-04 05:52:00,
2013-03-03 23:57:00,61.7,42.9,29.81,NE,45,1.2,0.0,50,0.00,CLR,FEW,0.00,WeatherDisplay:10.37,2013-03-04 05:57:00,